| time (UTC) | temp F | wind direction | speed MPH | gust MPH | rain 1hr in | rain 24hr in | rain mn in | humidity % | barometer mb |
| 20260831200049 | 75 | 304 | 12.0 | 20.0 | 0.00 | 0.00 | 0.00 | 23 | 1016.4 |
| 20260831194554 | 74 | 306 | 13.0 | 21.0 | 0.00 | 0.00 | 0.00 | 25 | 1016.7 |
| 20260831193046 | 75 | 314 | 9.0 | 20.0 | 0.00 | 0.00 | 0.00 | 21 | 1016.7 |
| 20260831191547 | 74 | 276 | 9.0 | 19.0 | 0.00 | 0.00 | 0.00 | 21 | 1017.0 |
| 20260831190111 | 74 | 315 | 8.0 | 20.0 | 0.00 | 0.00 | 0.00 | 27 | 1017.0 |
| 20260831184552 | 73 | 217 | 7.0 | 19.0 | 0.00 | 0.00 | 0.00 | 23 | 1017.0 |
| 20260831183100 | 72 | 296 | 9.0 | 21.0 | 0.00 | 0.00 | 0.00 | 26 | 1017.2 |
| 20260831181555 | 72 | 294 | 9.0 | 20.0 | 0.00 | 0.00 | 0.00 | 25 | 1017.4 |
| 20260831180056 | 71 | 303 | 12.0 | 22.0 | 0.00 | 0.00 | 0.00 | 22 | 1017.5 |
| 20260831174545 | 71 | 278 | 10.0 | 19.0 | 0.00 | 0.00 | 0.00 | 23 | 1017.6 |
| 20260831173044 | 70 | 278 | 9.0 | 17.0 | 0.00 | 0.00 | 0.00 | 26 | 1017.7 |
| 20260831171551 | 69 | 297 | 9.0 | 21.0 | 0.00 | 0.00 | 0.00 | 27 | 1017.7 |
| 20260831170046 | 68 | 271 | 7.0 | 15.0 | 0.00 | 0.00 | 0.00 | 33 | 1018.0 |
| 20260831164554 | 67 | 278 | 8.0 | 16.0 | 0.00 | 0.00 | 0.00 | 35 | 1017.9 |
| 20260831163051 | 66 | 307 | 8.0 | 16.0 | 0.00 | 0.00 | 0.00 | 36 | 1017.9 |
| 20260831161547 | 65 | 243 | 13.0 | 20.0 | 0.00 | 0.00 | 0.00 | 36 | 1017.9 |
| 20260831160047 | 64 | 252 | 11.0 | 19.0 | 0.00 | 0.00 | 0.00 | 37 | 1017.8 |
| 20260831154620 | 63 | 235 | 8.0 | 15.0 | 0.00 | 0.00 | 0.00 | 39 | 1017.8 |
| 20260831153138 | 62 | 293 | 8.0 | 19.0 | 0.00 | 0.00 | 0.00 | 42 | 1017.7 |
| 20260831151559 | 60 | 216 | 10.0 | 17.0 | 0.00 | 0.00 | 0.00 | 45 | 1017.9 |
| 20260831150054 | 58 | 235 | 10.0 | 18.0 | 0.00 | 0.00 | 0.00 | 46 | 1017.9 |
| 20260831144553 | 57 | 243 | 11.0 | 20.0 | 0.00 | 0.19 | 0.00 | 49 | 1017.7 |
| 20260831143100 | 55 | 236 | 12.0 | 20.0 | 0.00 | 0.19 | 0.00 | 51 | 1017.8 |
| 20260831141545 | 54 | 218 | 10.0 | 18.0 | 0.00 | 0.19 | 0.00 | 54 | 1017.8 |
| 20260831140044 | 52 | 244 | 7.0 | 13.0 | 0.00 | 0.19 | 0.00 | 56 | 1017.9 |
| 20260831134556 | 51 | 236 | 7.0 | 11.0 | 0.00 | 0.20 | 0.00 | 58 | 1017.7 |
| 20260831133054 | 51 | 253 | 3.0 | 7.0 | 0.00 | 0.20 | 0.00 | 58 | 1017.6 |
| 20260831131547 | 51 | 277 | 4.0 | 10.0 | 0.00 | 0.20 | 0.00 | 58 | 1017.6 |
| 20260831130049 | 50 | 0 | 3.0 | 9.0 | 0.00 | 0.20 | 0.00 | 60 | 1017.4 |
| 20260831124553 | 50 | 347 | 2.0 | 9.0 | 0.00 | 0.20 | 0.00 | 60 | 1017.2 |
| 20260831123048 | 50 | 338 | 4.0 | 9.0 | 0.00 | 0.20 | 0.00 | 60 | 1016.9 |
| 20260831121545 | 50 | 57 | 3.0 | 9.0 | 0.00 | 0.20 | 0.00 | 61 | 1016.7 |
| 20260831120057 | 50 | 0 | 3.0 | 6.0 | 0.00 | 0.20 | 0.00 | 60 | 1016.5 |
| 20260831114553 | 49 | 354 | 4.0 | 9.0 | 0.00 | 0.20 | 0.00 | 62 | 1016.7 |
| 20260831113107 | 47 | 71 | 1.0 | 4.0 | 0.00 | 0.20 | 0.00 | 68 | 1016.6 |
| 20260831111554 | 47 | 321 | 5.0 | 12.0 | 0.00 | 0.20 | 0.00 | 68 | 1016.5 |
| 20260831110056 | 48 | 318 | 6.0 | 15.0 | 0.00 | 0.20 | 0.00 | 66 | 1016.4 |
| 20260831104551 | 47 | 301 | 6.0 | 15.0 | 0.00 | 0.20 | 0.00 | 69 | 1016.5 |
| 20260831103052 | 47 | 282 | 5.0 | 18.0 | 0.00 | 0.20 | 0.00 | 69 | 1016.2 |
| 20260831101549 | 48 | 255 | 10.0 | 19.0 | 0.00 | 0.20 | 0.00 | 68 | 1016.1 |
| 20260831100053 | 48 | 281 | 6.0 | 15.0 | 0.00 | 0.20 | 0.00 | 67 | 1015.9 |
| 20260831094557 | 48 | 281 | 10.0 | 19.0 | 0.00 | 0.20 | 0.00 | 67 | 1015.7 |
| 20260831093049 | 48 | 272 | 9.0 | 18.0 | 0.00 | 0.20 | 0.00 | 67 | 1015.8 |
| 20260831091555 | 49 | 221 | 10.0 | 18.0 | 0.00 | 0.20 | 0.00 | 66 | 1015.8 |
| 20260831090056 | 49 | 297 | 10.0 | 16.0 | 0.00 | 0.20 | 0.00 | 66 | 1015.9 |
| 20260831084554 | 49 | 274 | 9.0 | 17.0 | 0.00 | 0.20 | 0.00 | 65 | 1015.9 |
| 20260831083053 | 50 | 278 | 8.0 | 16.0 | 0.00 | 0.20 | 0.00 | 63 | 1015.8 |
| 20260831081548 | 51 | 257 | 9.0 | 16.0 | 0.00 | 0.20 | 0.00 | 63 | 1015.8 |
| 20260831080045 | 51 | 262 | 7.0 | 13.0 | 0.00 | 0.20 | 0.00 | 63 | 1015.9 |
| 20260831074553 | 49 | 288 | 5.0 | 10.0 | 0.00 | 0.20 | 0.00 | 67 | 1015.7 |
| 20260831073100 | 50 | 227 | 5.0 | 11.0 | 0.00 | 0.20 | 0.00 | 66 | 1015.6 |
| 20260831071600 | 50 | 299 | 5.0 | 12.0 | 0.00 | 0.20 | 0.00 | 66 | 1015.5 |
| 20260831070056 | 51 | 269 | 5.0 | 11.0 | 0.00 | 0.20 | 0.00 | 64 | 1015.3 |
| 20260831064554 | 51 | 297 | 6.0 | 16.0 | 0.00 | 0.20 | 0.00 | 63 | 1015.2 |
| 20260831063048 | 52 | 263 | 9.0 | 15.0 | 0.00 | 0.20 | 0.00 | 62 | 1015.0 |
| 20260831061605 | 51 | 304 | 6.0 | 14.0 | 0.00 | 0.20 | 0.00 | 64 | 1014.9 |
| 20260831054545 | 52 | 201 | 5.0 | 11.0 | 0.00 | 0.20 | 0.20 | 62 | 1014.8 |
| 20260831053053 | 53 | 264 | 6.0 | 12.0 | 0.00 | 0.20 | 0.20 | 60 | 1014.7 |
| 20260831051555 | 53 | 248 | 4.0 | 11.0 | 0.00 | 0.20 | 0.20 | 58 | 1014.7 |
| 20260831050054 | 55 | 299 | 4.0 | 11.0 | 0.00 | 0.20 | 0.20 | 52 | 1014.7 |
| 20260831044601 | 55 | 303 | 4.0 | 7.0 | 0.00 | 0.20 | 0.20 | 52 | 1014.7 |
| 20260831043049 | 57 | 238 | 4.0 | 8.0 | 0.00 | 0.20 | 0.20 | 48 | 1014.4 |
| 20260831041551 | 59 | 274 | 2.0 | 9.0 | 0.00 | 0.20 | 0.20 | 43 | 1014.5 |
| 20260831040050 | 61 | 236 | 5.0 | 10.0 | 0.00 | 0.20 | 0.20 | 41 | 1014.3 |
| 20260831034549 | 62 | 280 | 7.0 | 11.0 | 0.00 | 0.20 | 0.20 | 39 | 1014.2 |
| 20260831033056 | 61 | 231 | 3.0 | 10.0 | 0.00 | 0.20 | 0.20 | 42 | 1013.9 |
| 20260831031550 | 61 | 222 | 3.0 | 11.0 | 0.00 | 0.20 | 0.20 | 42 | 1013.8 |
| 20260831030058 | 65 | 232 | 4.0 | 10.0 | 0.00 | 0.20 | 0.20 | 35 | 1013.6 |
| 20260831024600 | 65 | 221 | 7.0 | 11.0 | 0.00 | 0.21 | 0.20 | 34 | 1013.4 |
| 20260831023053 | 65 | 213 | 5.0 | 9.0 | 0.00 | 0.21 | 0.20 | 36 | 1013.1 |
| 20260831021550 | 65 | 235 | 4.0 | 6.0 | 0.00 | 0.21 | 0.20 | 37 | 1012.9 |
| 20260831014557 | 69 | 237 | 7.0 | 14.0 | 0.00 | 0.21 | 0.20 | 29 | 1012.6 |
| 20260831013109 | 69 | 217 | 4.0 | 12.0 | 0.00 | 0.21 | 0.20 | 32 | 1012.5 |
| 20260831011554 | 70 | 280 | 4.0 | 10.0 | 0.00 | 0.21 | 0.20 | 33 | 1012.6 |
| 20260831010053 | 69 | 340 | 5.0 | 18.0 | 0.00 | 0.21 | 0.20 | 31 | 1012.6 |
| 20260831004555 | 70 | 311 | 9.0 | 19.0 | 0.00 | 0.42 | 0.20 | 29 | 1012.5 |
| 20260831003054 | 70 | 334 | 11.0 | 28.0 | 0.00 | 0.42 | 0.20 | 32 | 1012.6 |
| 20260831001545 | 71 | 322 | 13.0 | 24.0 | 0.00 | 0.42 | 0.20 | 31 | 1012.5 |
| 20260831000046 | 70 | 319 | 16.0 | 28.0 | 0.00 | 0.42 | 0.20 | 32 | 1012.3 |
| 20260830234607 | 71 | 337 | 12.0 | 32.0 | 0.00 | 0.42 | 0.20 | 32 | 1012.5 |
| 20260830233104 | 71 | 318 | 14.0 | 27.0 | 0.00 | 0.42 | 0.20 | 30 | 1012.4 |
| 20260830231546 | 70 | 318 | 15.0 | 34.0 | 0.00 | 0.42 | 0.20 | 30 | 1012.2 |
| 20260830230054 | 70 | 309 | 16.0 | 28.0 | 0.00 | 0.42 | 0.20 | 31 | 1012.3 |
| 20260830224546 | 70 | 334 | 12.0 | 27.0 | 0.00 | 0.42 | 0.20 | 32 | 1012.3 |
| 20260830223109 | 69 | 348 | 16.0 | 28.0 | 0.00 | 0.42 | 0.20 | 32 | 1012.5 |
| 20260830221553 | 69 | 308 | 19.0 | 31.0 | 0.00 | 0.42 | 0.20 | 33 | 1012.9 |
| 20260830214608 | 68 | 309 | 17.0 | 31.0 | 0.00 | 0.42 | 0.20 | 32 | 1013.3 |
| 20260830213048 | 68 | 349 | 18.0 | 32.0 | 0.00 | 0.42 | 0.20 | 33 | 1013.5 |
| 20260830211544 | 67 | 271 | 16.0 | 36.0 | 0.00 | 0.42 | 0.20 | 37 | 1013.7 |
| 20260830210109 | 68 | 248 | 14.0 | 28.0 | 0.00 | 0.42 | 0.20 | 37 | 1013.7 |
| 20260830204559 | 66 | 304 | 18.0 | 33.0 | 0.00 | 0.42 | 0.20 | 40 | 1013.8 |
| 20260830203049 | 66 | 319 | 11.0 | 32.0 | 0.00 | 0.42 | 0.20 | 43 | 1014.0 |
| 20260830201547 | 66 | 306 | 14.0 | 29.0 | 0.00 | 0.42 | 0.20 | 46 | 1014.1 |